Wind_Speed
36 42 36 35 42 48 49 48 46 43 40 43 43 41 37 41 41 43 44 44 44 43 43 43 40 38 38 40 40 40 41 42 45 45 46 45 44 45 42 42 42 40 38 36
36 33 33 34 38 42 46 47 46 45 44 42 44 46 41 40 39 41 43 46 47 47 44 41 41 40 39 39 40 39 39 40 44 46 47 46 45 44 44 42 43 41 39 37
37 33 40 31 36 37 42 44 43 42 41 42 41 43 38 39 40 41 43 43 45 45 44 43 42 42 43 42 41 40 41 42 41 43 45 45 44 43 45 43 43 42 42 43
34 30 30 33 34 30 37 42 41 40 40 42 44 44 38 37 39 41 42 41 42 43 42 42 42 42 43 43 42 42 42 44 45 44 43 43 44 43 44 45 45 46 46 46
30 31 25 35 37 33 31 29 35 38 39 40 40 42 37 39 40 40 40 38 38 38 38 37 39 40 41 42 42 41 41 41 43 45 44 42 45 45 44 45 46 47 48 49
27 19 27 28 37 34 36 31 33 35 39 40 39 40 34 36 36 36 37 38 37 37 37 36 35 35 36 38 40 41 41 41 42 43 44 43 42 43 46 48 49 50 50 51
24 21 19 23 28 33 29 26 33 31 32 31 31 32 30 30 32 31 31 31 32 34 36 36 36 34 35 36 37 38 39 40 42 43 44 46 47 47 48 48 49 51 53 54
24 24 24 18 22 27 23 27 26 25 24 24 23 27 25 24 28 28 29 29 30 30 31 33 32 32 33 34 35 35 36 38 40 42 44 46 49 51 52 54 56 57 57 57
21 22 22 23 19 24 26 21 23 22 23 19 20 22 21 23 24 26 27 28 27 28 29 29 30 31 30 31 32 33 35 38 41 43 47 50 52 55 58 61 63 64 65 66
18 24 20 21 21 24 25 25 21 19 20 17 19 19 18 19 22 25 27 26 26 26 27 28 30 30 30 31 33 35 38 42 45 49 52 55 58 61 63 65 68 70 71 72
17 24 22 22 21 22 24 24 23 24 21 20 19 18 19 20 21 22 24 25 25 26 28 28 27 27 29 31 34 38 41 44 47 50 54 58 61 63 65 67 69 71 72 73
16 18 20 18 19 22 25 26 23 23 20 18 17 18 19 17 19 21 20 21 23 25 25 25 27 28 30 33 33 34 37 39 42 46 50 53 56 57 59 61 65 69 71 73
16 15 15 17 19 19 19 21 21 19 18 17 17 18 20 20 21 15 20 22 23 25 26 28 29 30 29 29 29 30 30 32 40 46 49 46 46 48 49 51 58 63 66 68
13 13 14 15 15 17 19 21 19 18 17 16 18 19 19 17 15 22 23 21 21 24 25 25 24 25 26 26 24 23 26 30 34 37 42 43 49 47 39 39 42 48 53 54
15 12 13 14 14 16 16 17 17 17 17 16 18 17 17 16 18 19 17 18 20 19 18 19 18 18 19 22 21 18 21 30 31 35 39 37 36 32 30 31 33 33 35 32
15 14 15 15 16 15 15 14 14 14 13 16 14 16 16 15 15 14 15 17 16 15 14 17 14 15 20 19 13 19 19 24 26 30 32 32 18 18 17 19 21 24 20 18
17 16 14 13 13 12 11 10 11 11 11 12 16 16 14 13 15 17 17 16 15 14 15 15 15 15 12 11 12 14 14 19 23 29 21 16 15 15 16 10 4 4 7 15
13 13 13 12 11 9 9 9 10 11 12 15 16 14 13 14 14 15 13 12 14 16 16 15 15 11 10 9 12 12 12 15 17 22 16 13 12 9 6 6 9 8 8 7
14 14 12 10 10 8 7 8 10 11 12 13 13 13 13 11 12 13 12 12 13 12 13 11 8 10 15 11 10 10 12 11 12 13 13 11 7 7 9 8 9 6 4 3
14 13 12 10 9 8 8 8 10 12 13 12 13 12 12 12 9 9 11 8 8 9 12 9 5 9 10 4 7 10 8 10 10 10 8 9 8 7 8 8 2 12 7 5
14 14 13 12 11 10 10 11 12 13 13 10 11 11 13 12 10 7 9 7 7 5 5 5 4 8 3 3 8 8 8 8 9 12 10 7 14 11 9 9 10 9 7 2
16 16 16 16 15 14 12 13 13 14 13 11 11 11 12 12 11 10 9 10 8 6 6 3 2 4 5 8 7 8 4 4 4 5 8 7 10 10 10 9 9 10 8 6
19 20 19 18 18 18 15 15 15 14 14 13 10 11 11 9 9 9 12 12 11 10 7 4 4 5 5 7 7 7 5 5 3 3 6 9 10 10 10 10 10 10 11 13
20 19 19 18 19 18 17 17 17 17 15 13 8 6 8 9 8 8 7 8 11 11 10 9 8 7 6 5 4 0 1 2 4 5 7 8 9 9 9 9 10 11 11 12
18 18 18 18 19 19 18 18 19 19 17 13 8 8 9 10 10 10 10 11 11 9 7 7 7 6 4 2 1 2 1 1 3 8 9 8 10 11 11 12 12 13 14 16
16 16 17 17 20 18 20 19 20 20 20 16 10 9 10 8 5 6 8 9 9 8 7 6 5 4 4 4 5 5 4 5 8 11 12 13 14 13 14 15 16 16 18 20
Wind_Direction
207 207 207 208 205 207 212 219 220 223 224 225 227 224 220 225 228 230 233 238 244 245 243 248 249 248 247 248 248 246 247 254 257 257 256 255 257 256 254 255 253 252 254 257
207 208 202 204 203 207 211 217 221 221 223 225 225 229 227 230 230 232 233 236 240 246 252 253 254 257 258 258 256 255 252 253 256 257 257 258 255 254 252 251 253 255 259 260
194 206 205 198 203 207 210 216 221 223 224 228 228 229 230 233 235 236 237 239 243 246 250 253 254 255 256 259 260 257 257 259 257 258 261 259 257 254 254 253 253 256 255 256
200 207 208 190 206 209 212 214 217 219 222 226 228 232 234 233 233 236 239 242 245 249 252 255 256 256 258 258 259 258 257 259 262 262 260 257 256 255 253 253 252 253 257 260
197 211 192 188 203 202 201 213 218 219 223 229 231 236 237 238 236 238 240 240 243 248 252 254 256 257 257 259 260 261 262 262 263 265 266 261 257 255 252 253 255 257 259 261
201 220 208 189 186 187 198 199 206 211 221 227 233 237 236 239 241 241 242 244 245 248 252 255 257 257 257 258 259 260 260 261 261 263 264 266 265 262 260 258 256 256 256 257
202 216 214 196 196 203 200 199 195 200 207 215 221 231 230 230 237 237 237 241 243 245 248 252 255 257 258 258 259 260 263 264 264 263 264 265 266 266 264 262 260 259 259 258
197 205 199 205 210 208 203 196 202 207 211 213 218 226 227 221 227 235 239 241 243 245 249 253 256 258 261 262 262 263 265 267 268 269 270 269 269 268 268 268 266 264 261 257
197 206 208 207 201 206 204 199 202 212 218 217 219 225 224 218 218 230 235 238 241 244 247 252 256 258 260 264 268 271 272 273 272 272 272 272 272 271 270 269 267 265 264 263
204 200 197 193 202 200 204 210 207 209 218 216 215 217 213 216 220 222 229 236 239 244 247 250 254 259 266 271 273 274 273 274 274 273 273 272 271 270 269 269 267 266 264 263
195 193 189 188 196 201 210 213 216 217 217 213 203 204 210 212 217 222 228 236 242 246 249 254 260 265 267 268 270 272 277 280 282 282 280 278 276 274 273 270 268 266 264 262
172 183 197 202 207 210 211 211 213 212 210 206 202 205 211 211 220 225 230 236 241 249 255 258 258 261 264 268 276 280 279 280 282 281 279 275 275 274 273 272 270 267 265 264
180 181 188 196 204 211 207 210 213 211 201 197 204 212 218 219 225 233 236 239 243 251 254 256 261 269 274 277 279 283 288 294 294 290 282 280 281 283 280 277 270 266 263 261
179 190 196 194 194 197 197 199 199 198 198 198 210 218 224 230 233 234 238 246 252 258 264 272 273 274 273 275 282 286 297 312 312 301 292 291 296 292 282 277 273 271 266 264
182 181 176 172 176 184 187 191 191 193 197 202 218 225 224 235 243 250 251 251 254 260 261 262 261 265 267 276 278 284 320 329 331 314 296 309 308 295 287 281 275 274 267 263
167 168 175 177 183 184 188 191 195 201 203 216 229 240 247 252 252 258 259 257 265 253 252 268 266 275 274 284 272 283 336 339 337 338 309 315 304 303 291 276 274 270 250 236
172 176 183 185 187 193 200 203 211 216 219 228 234 245 248 252 261 266 263 266 256 246 254 270 275 275 282 263 276 298 338 344 345 355 343 333 326 304 300 297 299 258 256 314
185 186 185 189 192 200 211 217 221 228 232 233 235 236 249 259 258 259 261 255 253 246 253 278 279 257 275 286 308 305 331 347 354 360 8 3 359 345 2 320 335 335 349 339
189 192 194 194 202 204 222 237 237 235 232 229 229 236 244 244 251 258 249 249 254 251 251 272 292 264 289 284 307 322 322 347 4 9 23 35 49 55 37 31 41 30 357 259
194 198 204 209 214 221 242 261 250 233 228 230 235 235 229 228 246 249 229 244 236 252 247 278 274 295 284 269 353 339 345 345 5 8 13 29 43 35 29 50 37 15 288 240
207 213 219 220 227 232 247 256 245 226 227 228 230 226 229 232 240 248 226 241 238 269 273 235 256 298 302 336 333 340 360 354 12 12 26 25 38 25 24 26 16 50 62 93
223 225 227 231 238 241 250 253 238 231 228 230 232 230 230 233 238 239 237 242 272 265 259 244 303 301 280 301 313 321 329 345 334 14 40 30 31 42 35 36 29 30 23 9
236 235 241 239 239 242 250 246 232 230 230 235 233 236 241 239 239 244 238 244 258 265 263 280 323 311 297 296 311 322 339 303 297 332 3 32 35 19 7 357 350 342 337 336
240 241 243 244 240 242 240 235 227 223 225 225 236 251 244 243 245 245 243 251 245 256 258 288 305 299 301 300 299 248 107 70 61 39 14 350 344 341 335 327 325 326 321 317
241 238 241 245 241 238 234 232 225 222 226 227 241 269 258 245 254 241 236 246 251 260 263 274 276 277 277 284 266 228 258 320 349 342 338 337 336 334 335 333 330 328 327 325
252 246 239 236 241 234 234 229 224 223 226 231 242 264 255 248 247 247 245 247 241 245 264 258 246 251 245 244 243 238 255 286 319 328 337 339 341 337 333 330 329 328 326 326
Height
5621 5627 5634 5646 5653 5662 5672 5681 5689 5695 5703 5712 5719 5723 5730 5735 5741 5746 5750 5753 5756 5760 5763 5766 5770 5774 5778 5781 5784 5787 5788 5789 5787 5788 5789 5790 5792 5792 5794 5796 5797 5797 5797 5798
5618 5625 5633 5640 5648 5657 5665 5673 5682 5689 5697 5705 5712 5717 5724 5728 5734 5737 5742 5745 5748 5752 5757 5763 5765 5767 5769 5772 5775 5778 5781 5781 5781 5781 5781 5782 5783 5784 5786 5787 5788 5790 5790 5790
5618 5624 5630 5637 5643 5651 5659 5668 5676 5684 5691 5699 5705 5710 5716 5719 5725 5730 5735 5740 5743 5747 5750 5753 5756 5758 5761 5763 5766 5768 5770 5771 5773 5773 5773 5774 5774 5776 5778 5779 5780 5780 5780 5779
5614 5620 5628 5634 5641 5649 5655 5661 5668 5677 5684 5691 5698 5702 5708 5714 5719 5723 5728 5732 5736 5739 5742 5744 5747 5750 5752 5754 5757 5759 5760 5761 5761 5762 5763 5764 5766 5766 5767 5767 5768 5768 5769 5770
5612 5616 5624 5630 5638 5645 5652 5658 5664 5670 5678 5686 5691 5696 5701 5706 5712 5716 5721 5725 5728 5731 5734 5736 5738 5741 5743 5746 5748 5750 5751 5752 5751 5751 5753 5755 5756 5757 5757 5757 5757 5757 5759 5759
5611 5616 5622 5629 5634 5639 5646 5652 5659 5665 5672 5678 5684 5688 5694 5698 5704 5709 5713 5717 5720 5723 5725 5727 5729 5731 5734 5736 5738 5739 5740 5741 5741 5742 5743 5744 5746 5747 5747 5747 5747 5748 5748 5748
5611 5615 5620 5625 5631 5638 5645 5650 5656 5662 5666 5673 5677 5681 5686 5692 5695 5701 5705 5709 5712 5714 5716 5718 5721 5723 5725 5726 5728 5729 5730 5731 5732 5733 5733 5734 5734 5734 5735 5735 5736 5736 5737 5738
5609 5614 5618 5623 5629 5637 5642 5648 5653 5658 5662 5668 5672 5675 5680 5685 5689 5694 5699 5702 5704 5706 5709 5711 5714 5715 5717 5718 5719 5721 5721 5722 5722 5722 5722 5722 5722 5722 5722 5721 5721 5721 5722 5723
5609 5613 5617 5623 5627 5634 5641 5647 5651 5656 5659 5663 5668 5671 5675 5679 5684 5689 5692 5694 5697 5700 5703 5705 5707 5708 5709 5710 5711 5712 5712 5711 5711 5710 5709 5708 5707 5706 5705 5704 5703 5703 5703 5705
5609 5613 5617 5622 5627 5632 5638 5645 5649 5652 5657 5660 5664 5667 5671 5675 5679 5683 5686 5689 5692 5695 5697 5698 5699 5701 5702 5703 5702 5702 5702 5700 5699 5698 5696 5694 5692 5690 5688 5686 5685 5683 5683 5683
5608 5612 5619 5622 5626 5631 5636 5641 5645 5650 5655 5657 5661 5665 5668 5671 5675 5679 5682 5684 5687 5689 5690 5692 5693 5694 5695 5695 5695 5694 5693 5691 5689 5686 5683 5679 5675 5672 5668 5666 5663 5662 5661 5662
5610 5612 5616 5621 5624 5628 5633 5638 5642 5646 5652 5655 5658 5663 5665 5669 5672 5674 5677 5680 5682 5683 5684 5685 5686 5686 5687 5688 5688 5686 5684 5681 5678 5674 5669 5663 5658 5654 5650 5647 5645 5642 5641 5643
5611 5614 5617 5622 5626 5628 5631 5635 5640 5644 5648 5652 5656 5659 5661 5664 5666 5670 5672 5673 5675 5677 5678 5678 5678 5678 5678 5679 5678 5677 5674 5671 5667 5660 5653 5648 5643 5637 5631 5627 5624 5622 5621 5623
5612 5615 5618 5621 5624 5628 5631 5634 5638 5643 5647 5650 5652 5654 5657 5660 5664 5665 5666 5667 5668 5669 5671 5671 5671 5670 5670 5670 5670 5667 5665 5660 5653 5646 5640 5633 5626 5619 5612 5609 5607 5605 5603 5602
5612 5615 5618 5621 5624 5627 5630 5633 5637 5641 5644 5647 5648 5650 5652 5656 5658 5659 5659 5661 5662 5663 5664 5664 5663 5663 5663 5663 5661 5659 5655 5650 5643 5636 5627 5619 5611 5605 5600 5597 5596 5592 5590 5589
5613 5616 5619 5621 5624 5626 5629 5632 5636 5639 5641 5642 5645 5645 5647 5649 5651 5652 5653 5654 5655 5656 5657 5657 5657 5656 5656 5654 5653 5652 5646 5641 5636 5628 5619 5611 5605 5599 5594 5590 5589 5585 5582 5582
5612 5615 5618 5620 5623 5625 5629 5631 5633 5635 5637 5639 5640 5642 5643 5644 5646 5647 5648 5649 5650 5650 5651 5651 5650 5650 5650 5648 5647 5644 5640 5636 5630 5623 5615 5609 5603 5598 5593 5590 5586 5583 5580 5582
5613 5615 5617 5620 5622 5625 5626 5628 5630 5632 5633 5634 5636 5638 5640 5641 5642 5643 5644 5644 5644 5644 5645 5645 5645 5644 5644 5643 5641 5638 5634 5630 5625 5620 5613 5609 5603 5597 5594 5592 5589 5586 5586 5587
5611 5614 5617 5619 5621 5623 5624 5626 5627 5629 5631 5632 5633 5635 5636 5637 5638 5639 5639 5640 5640 5640 5641 5641 5640 5640 5639 5639 5636 5633 5630 5625 5621 5617 5613 5608 5604 5601 5597 5594 5591 5590 5590 5591
5610 5613 5616 5617 5619 5621 5622 5623 5624 5625 5627 5628 5630 5631 5633 5634 5636 5636 5636 5636 5636 5637 5637 5636 5636 5635 5634 5633 5631 5629 5626 5623 5619 5616 5612 5608 5604 5602 5599 5596 5595 5593 5591 5593
5609 5611 5613 5615 5617 5619 5620 5620 5621 5623 5628 5626 5627 5629 5630 5631 5633 5633 5633 5633 5633 5633 5632 5633 5633 5632 5630 5629 5627 5626 5622 5620 5618 5615 5612 5608 5604 5602 5599 5597 5596 5594 5593 5593
5606 5608 5610 5612 5614 5617 5617 5618 5620 5621 5622 5623 5625 5626 5626 5627 5628 5629 5630 5630 5630 5630 5630 5630 5629 5628 5627 5626 5624 5622 5620 5619 5616 5614 5611 5608 5606 5603 5601 5599 5598 5596 5595 5594
5604 5605 5607 5609 5610 5612 5613 5614 5616 5617 5619 5620 5622 5622 5623 5623 5624 5625 5625 5626 5627 5627 5627 5626 5625 5624 5623 5622 5621 5620 5618 5617 5615 5613 5610 5608 5606 5604 5603 5601 5599 5597 5596 5594
5599 5600 5602 5604 5606 5607 5609 5611 5612 5614 5615 5617 5618 5618 5619 5620 5619 5620 5622 5622 5623 5623 5623 5623 5622 5621 5620 5619 5618 5617 5617 5615 5614 5612 5610 5608 5606 5605 5603 5601 5599 5596 5594 5593
5594 5596 5597 5599 5600 5603 5605 5606 5608 5610 5612 5613 5614 5615 5615 5616 5616 5617 5618 5619 5619 5620 5619 5619 5618 5618 5617 5616 5616 5616 5615 5614 5613 5612 5610 5608 5606 5603 5600 5598 5596 5594 5591 5589
5589 5591 5593 5595 5595 5598 5599 5601 5603 5606 5608 5610 5611 5612 5612 5612 5613 5613 5614 5615 5616 5616 5616 5615 5615 5615 5614 5614 5614 5613 5612 5612 5611 5609 5607 5605 5602 5600 5598 5595 5592 5590 5587 5585